Location: Bettgenhausen
(50.6463°N, 7.5681°E)
Time: 17:22:09
(UTC+00:00)

Cosmos 1937 Rocket - Pass Details

Date: 27 February 2020
Orbit: 747 x 780 km, 74.0° (Epoch: 31 March)

Event Time Altitude Azimuth Distance (km) Brightness Sun altitude
Rises 18:03:54 0° 337° (NNW) 3,258 7.1 -9.8°
Reaches altitude 10° 18:06:21 10° 341° (NNW) 2,323 6.2 -10.2°
Maximum altitude 18:11:33 59° 61° (ENE) 885 3.6 -11.0°
Drops below altitude 10° 18:16:40 10° 141° (SE) 2,285 5.6 -11.8°
Enters shadow 18:19:01 - 145° (SE) 3,186 6.4 -12.2°
